Simultaneous Nadir Overpasses (SNOs) Predictions

Prediction of SNOs between LANDSAT-8 and NOAA-19 Satellite Orbit:

Table of predicted SNOs for the next 14.0 days since TLE Epoch: 11/22/2014
Index Date (LANDSAT-8) Time (LANDSAT-8) Lat,Lon (LANDSAT-8) SZA (LANDSAT-8 ) Date (NOAA-19) Time (NOAA-19) Lat,Lon (NOAA-19) SZA (NOAA-19 ) Distance(km) Time Diff (sec)
1 11/23/2014 12:37:44 72.46, -9.29 92.78 11/23/2014 12:37:32 72.46, -9.34 92.78 1.72 12
2 11/23/2014 13:27:18 -72.12, 157.72 87.58 11/23/2014 13:28:29 -72.09, 158.64 87.58 31.67 71
3 11/25/2014 17:22:02 72.50, -80.30 93.25 11/25/2014 17:21:12 72.52, -80.35 93.28 3.06 50
4 11/25/2014 18:11:32 -72.37, 87.10 86.88 11/25/2014 18:12:14 -72.38, 87.17 86.86 2.86 42
5 11/27/2014 22:06:11 73.07,-150.28 94.25 11/27/2014 22:05:03 73.15,-152.59 94.29 75.11 68
6 11/27/2014 22:55:50 -72.47, 16.20 86.37 11/27/2014 22:55:54 -72.44, 16.17 86.40 3.34 4
7 11/27/2014 23:45:31 71.64,-177.63 92.79 11/27/2014 23:46:36 71.62,-174.97 92.83 93.26 65
8 11/30/2014 03:40:10 -72.52, -54.80 85.94 11/30/2014 03:39:34 -72.51, -54.86 85.96 2.41 36
9 11/30/2014 04:29:38 72.38, 112.60 93.93 11/30/2014 04:30:29 72.37, 112.68 93.92 3.12 51
10 12/02/2014 08:24:30 -72.63,-125.68 85.49 12/02/2014 08:23:17 -72.75,-126.24 85.39 22.44 73
11 12/02/2014 09:13:59 72.44, 41.61 94.32 12/02/2014 09:14:08 72.42, 41.70 94.31 3.57 9
12 12/04/2014 13:58:21 72.50, -29.38 94.69 12/04/2014 13:57:47 72.49, -29.31 94.68 2.80 34




NCC Satellite Simultaneous Nadir Overpasses (SNOs) Prediction Service
